Wind_Speed
17 14 15 16 16 18 16 14 13 11 10 10 11 14 15 16 17 16 16 16 15 14 14 14 13 13 13 12 12 11 9 8 8 7 6 5 6 6 7 8 8 7 7 7 7 7 8 8 8 8 8 8 8 9 9 8 7 7 8 9 13 19 19 15 15 17 20 21 22 21 20 18 18 20 22 20 20 21 22 21 21 21 20 19 17
19 16 15 15 15 16 15 14 13 11 11 10 12 14 15 16 17 16 15 15 14 14 14 14 13 13 12 11 11 10 9 8 8 7 6 6 7 7 8 8 8 7 7 7 6 7 8 8 9 9 9 9 9 9 10 9 7 8 9 8 11 18 19 17 16 16 18 20 21 20 19 18 18 20 23 22 21 21 20 20 20 20 19 18 16
19 17 15 15 14 15 15 14 13 12 12 11 12 13 15 16 17 16 15 14 14 14 13 13 12 12 12 11 10 10 9 8 7 6 6 7 8 8 8 8 7 7 7 6 6 7 8 8 9 9 9 9 9 8 10 10 7 8 10 8 10 15 18 17 17 17 17 18 19 18 18 18 18 19 22 23 23 21 19 19 19 18 16 16 14
17 17 16 15 14 15 16 14 14 12 12 12 12 14 15 16 16 16 15 15 14 13 12 11 11 11 11 11 10 10 9 8 7 6 7 7 8 7 7 7 7 7 7 6 6 7 8 8 8 9 9 9 8 7 9 10 8 8 9 9 9 12 15 17 19 19 18 17 18 18 17 18 18 18 19 23 25 22 19 18 18 16 14 14 13
17 17 17 16 14 14 16 15 14 12 12 13 14 15 15 16 16 16 15 15 14 12 11 10 10 10 9 9 9 8 8 8 7 7 7 7 7 7 7 6 7 7 7 6 6 7 8 8 8 9 9 8 8 7 8 9 8 7 8 9 9 9 11 17 20 20 21 20 19 17 16 17 18 17 17 20 23 22 20 18 16 15 13 13 15
17 17 17 16 14 14 16 15 14 13 13 13 14 15 16 16 16 15 16 15 14 13 12 11 10 9 9 8 8 8 8 8 7 8 7 7 7 7 7 6 6 7 7 6 7 8 9 8 8 9 8 7 7 6 7 8 8 8 7 8 9 9 9 14 18 18 20 22 21 18 16 16 16 16 16 17 19 20 20 18 16 14 13 14 17
17 18 17 15 15 15 16 15 14 14 14 14 15 15 16 16 16 16 16 16 15 14 13 12 11 10 9 8 8 8 7 7 7 8 7 7 7 7 6 6 6 7 6 7 7 8 8 8 8 8 7 6 5 5 5 6 7 7 6 7 7 9 9 10 14 15 17 20 21 19 16 15 15 15 14 14 15 17 17 17 14 11 13 15 17
18 17 17 15 15 16 17 16 14 14 14 15 14 15 15 15 15 16 16 16 15 14 14 13 12 10 9 8 7 7 6 6 6 6 6 6 7 7 6 6 6 6 7 8 8 8 8 7 7 7 6 5 4 4 4 4 5 6 5 6 6 7 8 8 10 12 13 15 20 18 15 16 16 15 14 13 13 14 14 13 10 9 13 14 16
18 17 17 16 16 17 17 16 14 14 14 15 15 15 15 15 15 16 16 16 15 15 14 13 12 11 9 7 6 6 5 5 5 5 5 5 6 6 6 6 6 6 6 8 8 8 7 7 7 7 5 5 4 3 4 4 4 4 4 5 5 6 7 7 7 9 9 10 16 17 15 16 16 16 16 14 12 11 11 10 9 10 13 15 16
18 19 19 16 17 18 17 16 15 14 14 14 15 15 15 15 15 16 16 16 16 15 14 13 12 10 8 7 6 5 5 5 4 5 5 5 6 6 6 5 5 6 6 7 8 7 6 6 7 6 5 5 5 4 4 4 4 4 3 4 4 5 5 5 5 7 8 9 12 15 16 15 15 15 15 13 11 9 9 10 10 12 15 16 16
19 21 19 16 17 18 18 17 16 15 14 14 15 15 15 15 16 17 17 17 17 15 14 12 11 9 8 7 5 4 4 4 5 5 6 6 6 5 5 5 5 6 6 8 8 6 6 7 7 5 4 5 5 5 4 3 4 4 4 4 4 3 3 3 5 6 7 8 9 11 13 15 16 14 11 11 9 9 10 10 10 13 16 17 17
20 21 18 16 18 18 18 18 17 15 14 14 14 15 15 16 17 18 18 18 16 15 13 11 10 8 8 7 5 4 4 4 5 6 6 6 6 5 5 5 5 6 6 7 7 6 6 7 7 5 4 4 4 4 3 3 3 4 4 5 4 3 3 3 5 6 5 7 9 10 10 13 15 13 9 7 5 7 9 10 12 14 16 17 17
19 18 17 17 19 19 19 18 17 15 14 14 14 15 15 16 17 18 18 17 16 14 12 11 9 8 7 7 6 5 4 4 5 6 6 6 6 5 5 5 5 6 5 6 6 5 5 5 6 5 4 4 4 3 3 2 2 3 3 4 4 4 4 5 7 6 5 6 8 8 8 9 11 9 7 5 4 6 8 11 13 15 15 17 17
17 16 17 18 19 20 19 18 17 15 14 14 15 15 15 17 17 18 18 17 16 14 12 10 9 8 7 6 5 4 3 4 5 6 6 6 6 6 5 5 5 6 5 6 6 5 5 5 5 5 4 3 2 2 3 3 2 3 4 4 5 5 5 6 8 8 7 7 8 9 8 8 8 6 4 4 6 7 9 12 14 16 16 17 17
18 17 18 18 19 19 19 17 17 15 14 15 16 16 16 17 18 17 17 16 16 14 13 10 9 8 7 6 5 4 3 4 5 5 6 6 6 6 6 5 5 6 6 6 7 5 5 5 5 4 4 2 1 1 2 3 3 3 4 5 5 5 5 6 7 8 8 8 9 9 9 9 8 5 4 6 7 7 9 12 14 16 17 18 18
18 18 19 19 18 19 18 17 17 16 14 15 16 16 16 17 18 17 16 16 16 14 12 10 8 7 7 6 5 4 3 3 4 5 5 6 6 6 5 4 4 5 5 6 7 5 5 4 4 3 3 2 0 0 1 2 3 3 4 6 6 6 6 5 6 7 7 8 9 9 8 9 8 5 5 6 8 8 10 12 14 16 17 18 19
18 19 19 18 17 18 18 17 17 16 15 15 16 17 17 17 18 17 17 17 15 13 11 10 9 8 7 6 5 4 3 2 2 4 4 5 6 6 6 4 4 5 4 5 5 5 4 4 4 3 2 1 1 1 1 1 2 3 3 5 7 8 8 7 6 6 6 8 10 9 7 7 7 6 5 7 9 10 11 12 14 16 17 18 19
18 20 20 18 18 18 17 18 17 16 15 15 16 17 17 17 17 17 17 17 15 12 11 10 9 8 8 6 5 4 3 2 1 3 3 4 5 5 6 5 5 5 3 4 3 4 4 4 4 4 2 2 1 0 1 1 2 2 3 4 6 7 8 9 7 6 7 8 9 8 7 7 7 7 7 8 10 11 12 12 13 14 15 17 18
17 21 21 18 18 18 17 18 17 16 15 14 15 17 18 17 17 17 17 17 14 13 12 11 9 9 9 7 5 4 3 2 1 3 4 5 5 5 6 5 5 4 4 5 3 3 4 4 3 2 1 1 1 1 1 2 2 2 3 3 4 5 7 9 8 8 8 7 7 8 9 9 8 8 9 9 10 11 12 12 12 13 13 14 16
14 18 22 19 18 18 18 18 18 16 16 15 16 17 19 18 18 17 16 16 15 14 13 11 10 9 9 8 6 5 4 2 0 2 4 5 6 6 6 6 6 6 5 6 3 2 4 3 2 1 1 1 1 1 1 2 2 2 3 3 4 5 6 8 9 11 9 7 8 9 10 10 9 10 11 11 10 10 11 11 11 11 12 12 13
12 15 21 21 19 18 18 18 18 17 16 16 16 17 18 18 18 17 16 16 16 16 14 12 10 10 10 9 7 5 4 3 2 3 4 6 7 8 7 7 7 7 7 6 3 3 4 3 2 2 1 2 2 2 2 2 2 3 3 4 5 5 6 7 9 11 11 10 9 10 11 11 10 11 12 11 11 10 9 10 9 10 11 12 12
13 14 19 22 20 19 18 18 18 17 16 17 17 17 17 18 17 17 17 17 18 16 14 12 10 10 10 10 8 6 5 4 4 4 4 5 7 9 8 7 6 7 7 6 4 4 5 5 4 3 2 2 2 2 2 3 4 4 4 5 5 6 7 7 8 11 12 12 11 11 12 12 12 12 13 12 12 12 10 10 9 9 10 11 11
15 15 17 22 21 19 18 17 17 17 16 18 18 16 16 18 17 16 17 18 17 16 13 11 10 10 11 11 9 7 6 5 5 4 5 5 7 9 9 8 6 6 5 5 5 6 6 6 5 5 5 3 2 3 3 4 4 4 3 3 5 6 7 8 8 10 12 13 14 14 13 13 14 14 14 14 14 13 13 11 11 10 9 11 11
15 15 15 19 21 19 18 17 16 15 16 18 16 14 15 17 16 15 15 16 16 15 13 12 12 11 11 11 9 8 7 6 6 5 5 6 7 8 9 9 7 7 6 6 6 6 7 7 6 5 4 3 4 4 4 5 4 3 2 2 4 6 7 8 9 10 11 12 15 15 14 15 15 15 15 15 15 15 15 14 12 12 10 10 11
13 14 14 17 19 18 17 18 17 14 15 18 15 14 15 15 15 15 14 15 14 13 13 12 13 13 12 11 10 10 9 8 9 6 6 7 6 6 8 9 7 7 7 6 6 6 7 7 7 5 4 6 7 4 2 3 3 2 2 3 3 4 6 8 9 11 11 13 15 15 15 16 16 16 17 16 16 16 16 15 14 13 12 11 11
12 13 13 15 17 16 15 17 17 15 16 17 14 14 17 15 15 16 15 14 14 14 14 13 13 14 13 11 11 11 10 9 10 9 7 7 6 5 7 9 7 6 7 5 4 5 5 4 6 8 9 9 7 5 2 2 3 3 2 2 3 3 5 7 9 11 13 14 15 15 15 16 16 17 18 18 17 17 17 16 15 15 14 13 12
11 12 13 13 14 16 15 15 16 16 17 18 15 13 16 16 14 15 15 14 15 15 15 14 14 15 14 12 12 11 10 9 9 10 9 7 6 6 7 9 7 6 6 5 4 4 4 5 8 11 11 9 8 7 5 4 4 4 3 1 2 2 4 6 8 10 12 15 16 15 15 15 17 18 19 19 18 18 17 17 16 16 15 14 13
10 11 11 12 13 14 15 16 16 17 18 19 18 14 15 17 15 15 15 16 17 16 15 15 16 15 14 14 13 12 10 9 9 9 9 7 7 7 7 9 7 5 6 5 4 4 6 8 9 12 11 8 8 8 7 6 5 5 3 2 2 2 3 4 7 9 11 14 15 15 14 15 16 18 20 20 19 18 18 17 17 16 16 15 15
9 9 10 11 12 12 14 15 16 17 18 18 18 15 15 18 19 18 18 19 19 17 17 18 18 17 16 15 15 14 11 10 9 8 8 8 9 9 8 9 8 5 5 5 4 4 7 9 9 10 10 8 7 7 7 6 5 6 5 4 2 2 2 3 6 8 10 12 14 14 14 14 15 18 20 20 20 19 19 18 17 17 16 16 16
10 9 10 10 10 11 12 14 15 16 17 18 17 16 17 20 22 22 21 21 20 19 20 19 18 17 16 18 18 17 14 10 10 9 9 10 10 10 9 9 9 5 5 5 4 5 6 7 8 9 8 7 7 7 6 6 5 5 5 4 3 2 2 3 4 7 9 10 12 13 13 13 14 17 19 21 21 20 19 18 18 18 17 17 17
13 12 12 11 10 11 12 14 15 15 16 17 18 18 20 22 22 22 22 22 20 20 20 20 19 16 16 20 20 18 17 13 11 11 10 11 10 10 9 9 9 6 5 5 4 5 5 5 8 9 7 6 7 7 7 6 5 4 3 4 2 2 3 2 3 6 8 9 11 11 13 14 14 16 18 21 21 20 20 19 19 18 18 17 17
16 16 16 15 13 13 13 14 15 15 16 18 19 20 21 22 21 21 21 21 20 20 20 20 20 18 18 21 19 18 20 17 15 15 13 12 11 11 10 9 10 7 5 5 5 6 5 5 7 8 6 5 6 7 7 6 6 5 3 2 1 2 3 2 2 3 6 8 9 10 12 14 14 15 17 19 21 21 21 20 19 19 19 18 17
16 16 16 17 19 18 17 17 17 17 18 18 19 20 21 20 20 20 20 21 20 20 20 19 19 19 20 20 18 18 19 18 18 19 17 14 12 12 11 10 10 9 7 7 7 6 5 5 7 7 6 5 4 5 6 6 6 5 3 1 0 3 3 2 2 2 4 6 8 10 12 13 13 14 15 18 20 21 22 21 21 20 19 19 19
14 15 14 15 18 20 20 21 21 22 23 22 22 23 22 22 21 19 19 21 21 20 20 18 17 18 18 19 19 18 17 17 17 17 17 14 12 13 12 10 11 11 8 7 7 6 6 6 7 7 6 5 4 5 5 5 5 3 3 2 1 2 2 3 3 2 3 6 7 9 11 11 12 13 15 16 18 20 22 22 22 21 20 20 20
12 15 15 14 15 18 19 21 22 23 26 26 25 24 24 24 25 21 18 21 20 18 17 15 15 16 16 16 18 19 17 17 16 16 16 15 13 12 12 11 11 11 9 8 8 6 6 7 9 8 6 5 4 5 4 4 6 4 2 2 1 2 2 2 3 2 2 5 6 7 8 9 11 12 14 15 16 19 21 22 23 23 22 21 22
10 12 13 14 15 16 18 19 20 21 23 25 25 24 25 25 26 24 22 21 20 17 15 15 15 15 14 14 16 18 18 17 17 17 16 15 13 12 12 11 12 12 10 9 9 8 7 7 10 9 6 5 4 5 4 4 5 4 3 1 0 1 2 2 2 2 2 3 4 5 6 8 10 11 13 14 15 18 20 22 23 23 23 23 23
7 9 10 11 13 14 16 18 18 18 19 20 21 23 25 25 25 26 25 23 22 19 16 16 16 15 15 14 15 16 18 18 17 17 17 15 13 13 12 12 12 12 10 10 9 9 8 8 10 11 8 7 5 4 4 5 5 5 5 3 2 1 1 2 3 3 3 2 3 4 5 6 8 10 11 13 14 16 18 21 22 23 23 23 24
6 7 8 9 10 12 14 15 16 17 17 17 18 20 22 23 23 24 25 25 24 23 20 20 19 17 16 15 16 17 18 19 18 17 17 16 15 14 14 13 12 11 11 10 10 10 9 9 9 10 9 8 6 6 5 6 7 6 6 5 3 2 1 3 3 3 4 3 3 3 4 5 7 9 11 12 14 15 17 19 21 22 23 24 25
4 5 6 7 9 10 11 12 14 15 15 15 16 18 19 20 20 21 24 25 25 23 23 23 22 21 19 17 18 17 18 19 18 17 17 16 15 15 14 14 13 12 12 11 11 11 10 10 9 9 9 8 8 8 7 6 7 7 5 5 4 2 1 2 3 4 4 4 4 3 3 4 5 8 10 12 13 14 16 17 19 21 22 24 25
2 3 4 5 6 6 8 9 11 13 13 14 15 17 18 18 18 20 22 22 23 23 22 23 22 22 22 21 20 18 18 20 19 17 17 17 16 15 14 14 13 13 13 12 12 11 11 10 11 11 10 9 9 8 8 7 6 6 5 4 4 3 2 2 2 3 3 3 4 4 4 4 5 7 8 11 13 14 15 16 18 19 21 22 24
1 1 3 5 5 5 6 7 9 10 11 12 13 14 15 15 16 18 19 20 20 21 20 20 20 21 21 22 22 19 17 20 21 19 18 18 18 17 16 16 15 14 14 14 13 12 12 12 11 12 12 11 10 9 8 8 7 5 4 3 3 3 2 1 2 1 2 2 2 3 4 4 6 7 8 9 11 12 14 15 17 18 19 21 22
2 1 1 2 4 5 6 7 8 9 10 10 11 12 11 12 13 14 16 17 18 19 20 19 19 20 20 21 23 20 17 18 21 21 21 19 18 17 17 17 16 16 16 16 16 15 16 14 12 12 12 12 11 10 9 8 7 5 4 4 3 3 3 1 1 2 1 1 1 1 3 4 6 7 8 9 10 12 13 14 15 17 18 19 20
2 2 2 1 2 4 4 6 8 9 10 10 11 11 10 10 11 11 12 13 14 17 17 17 18 18 19 19 20 20 18 19 21 21 21 20 18 18 17 17 17 17 17 18 19 17 17 16 13 12 12 12 12 10 10 9 8 5 5 5 3 3 3 4 3 1 1 1 3 1 2 3 4 6 8 9 9 11 12 13 14 16 18 18 19
2 3 4 3 3 4 3 4 6 8 9 9 9 10 9 9 10 10 11 12 13 14 15 16 16 17 18 18 18 19 19 21 21 20 20 18 18 19 18 17 17 18 18 19 20 18 16 16 14 14 13 13 12 10 10 10 9 7 5 5 4 4 2 3 2 1 3 0 3 3 3 3 4 5 7 8 9 10 10 12 13 15 17 17 18
3 2 3 3 3 4 4 4 4 6 7 8 9 9 9 9 10 10 11 11 12 12 14 14 15 16 16 16 16 16 17 19 18 18 19 18 19 20 18 18 18 18 19 19 20 19 17 17 15 15 15 14 13 11 10 10 9 8 7 6 5 4 3 3 3 1 3 1 2 3 4 4 4 5 6 6 7 10 10 10 11 13 15 16 17
4 3 3 2 2 2 4 4 3 5 6 7 7 8 9 9 9 9 9 10 10 10 11 12 12 13 13 14 15 15 15 15 14 16 18 17 18 18 18 18 18 19 20 20 20 19 18 18 17 16 15 15 14 13 11 10 9 9 9 8 7 6 6 6 6 2 0 1 3 4 5 5 5 5 5 5 5 8 9 9 10 11 13 14 16
5 5 4 3 3 3 4 4 4 4 5 5 6 7 8 8 8 9 10 11 11 10 9 9 10 11 13 14 15 15 15 14 15 17 18 17 17 17 18 18 18 18 19 20 20 19 19 18 17 17 16 15 15 15 13 11 10 9 9 9 9 8 8 7 7 5 3 3 3 5 5 5 6 6 5 5 5 6 7 9 9 10 10 11 14
7 7 6 6 6 5 5 5 5 5 5 4 5 6 7 8 8 9 10 10 10 11 10 10 11 12 13 14 14 15 15 15 17 18 18 18 16 15 16 17 18 18 19 20 20 19 19 18 17 18 17 17 17 16 14 13 12 10 9 9 9 9 9 9 8 7 6 6 4 5 6 5 6 6 6 6 6 6 7 8 8 9 10 10 11
8 8 8 7 7 7 7 7 6 6 6 6 6 7 7 8 8 9 10 10 10 11 10 11 12 12 13 14 15 17 18 17 17 17 17 17 15 14 15 17 19 19 19 20 19 18 19 18 18 18 19 19 18 17 16 15 14 12 10 9 9 9 9 9 8 8 8 7 7 5 6 6 6 6 7 7 8 8 8 8 9 9 10 10 10
8 8 8 8 8 8 9 8 7 7 7 6 6 6 7 8 9 9 11 11 11 12 11 11 13 13 12 13 15 17 18 18 18 17 17 16 15 15 16 17 19 19 20 19 17 17 18 18 19 19 19 19 18 18 18 16 15 14 12 11 10 9 9 9 8 8 8 7 8 7 6 7 6 5 7 8 8 9 8 9 9 8 9 10 10
9 9 9 9 8 8 8 8 8 8 8 7 6 5 6 7 8 9 10 11 12 12 12 12 13 13 12 13 14 15 16 16 18 18 16 15 16 16 17 18 18 18 19 18 17 17 17 17 19 19 20 20 20 19 19 18 17 16 15 13 12 11 10 9 9 8 8 7 8 8 7 7 6 5 6 7 8 9 9 9 10 9 9 10 11
Wind_Direction
155 152 152 154 153 150 145 148 153 159 154 145 142 139 143 145 145 145 147 148 144 139 138 136 131 128 124 125 127 130 128 122 116 114 117 115 107 93 89 90 89 86 81 78 75 74 76 75 73 76 89 105 115 125 127 122 122 123 121 126 129 124 123 127 127 131 138 140 142 146 146 148 145 138 136 134 130 129 133 133 134 134 132 134 141
156 152 155 156 153 151 144 149 153 159 155 145 144 141 144 146 147 146 148 149 143 139 140 139 136 132 128 128 129 128 125 119 118 116 112 105 97 91 89 89 86 81 76 73 75 78 80 78 74 75 83 95 108 124 126 119 117 117 122 134 131 122 124 130 130 133 138 139 142 145 145 146 143 135 134 133 130 132 133 133 134 132 133 139 144
155 150 155 156 154 150 143 149 150 154 154 148 145 141 145 149 149 149 150 150 145 142 142 142 140 138 136 132 129 126 123 123 122 113 100 93 89 86 86 84 79 73 69 65 68 72 77 78 76 78 82 90 101 114 118 111 109 114 123 133 128 125 131 136 137 138 139 138 138 140 142 141 141 136 134 132 130 134 133 131 132 131 139 146 148
153 151 156 155 153 147 145 150 150 151 152 150 146 142 147 149 151 152 153 152 149 145 143 144 143 144 141 134 129 128 127 121 111 95 85 83 78 77 79 77 72 68 65 59 59 65 72 75 78 85 86 85 89 98 102 102 106 111 119 125 124 127 136 138 136 136 138 137 134 136 138 138 138 137 136 134 131 134 134 130 129 135 147 150 148
155 153 155 155 152 149 149 150 151 152 151 150 146 142 144 146 149 152 153 152 151 149 147 147 146 145 142 136 132 130 117 102 91 80 77 76 71 72 75 71 67 66 65 60 56 62 67 68 71 80 83 84 91 99 104 110 115 109 111 122 125 125 131 130 130 135 139 140 138 136 136 137 139 137 137 135 131 132 132 129 132 141 147 145 145
158 154 154 154 153 154 152 151 154 151 149 151 147 143 142 144 147 151 152 151 153 151 150 150 148 146 142 138 132 121 103 92 87 83 82 77 71 71 70 65 63 61 58 59 57 60 65 64 62 71 77 81 92 102 112 122 119 111 110 118 127 128 131 125 126 136 140 140 142 140 137 138 138 136 136 134 129 129 130 132 141 145 144 144 144
159 154 154 154 156 158 154 153 154 150 151 153 150 146 143 146 150 152 151 151 153 153 154 153 151 148 141 133 124 111 99 95 95 93 89 82 75 69 64 58 55 55 52 53 52 53 58 58 57 64 70 70 77 92 107 117 116 120 119 117 126 131 137 128 126 134 135 133 136 139 138 139 137 135 134 132 128 128 128 132 141 141 143 148 146
161 157 157 157 160 160 156 154 154 153 153 154 153 150 146 148 152 152 152 154 155 158 160 156 151 144 135 127 118 106 101 103 102 96 88 83 75 67 58 51 50 49 46 47 45 43 44 47 54 58 61 63 66 83 97 107 119 132 128 125 131 131 133 126 126 130 125 124 129 130 133 139 140 138 135 130 127 127 128 136 144 144 148 150 148
164 162 160 160 162 159 158 156 156 156 154 155 156 153 152 153 154 155 157 158 159 163 161 153 148 140 132 124 113 104 106 107 95 82 82 82 71 63 53 47 48 44 40 46 43 40 37 34 49 61 65 74 74 83 98 108 122 134 136 135 133 130 127 123 126 126 118 122 127 125 127 136 140 140 135 131 131 131 135 144 150 147 149 151 150
164 165 162 162 165 160 159 157 158 159 157 157 158 156 156 159 159 161 162 164 165 165 159 150 144 138 131 120 107 101 102 96 77 60 61 68 68 62 56 49 46 43 36 45 47 41 33 27 37 54 78 93 92 88 97 110 121 132 145 148 141 133 125 119 126 128 123 125 125 126 130 137 144 143 140 143 144 145 150 151 150 147 149 152 153
164 166 163 164 166 162 159 158 161 162 161 159 161 161 161 164 164 165 167 167 167 165 158 150 145 139 129 119 112 106 97 84 66 52 42 47 64 64 62 57 47 44 40 47 47 38 37 37 37 49 82 100 106 106 110 117 124 133 144 155 162 153 138 126 133 134 130 132 126 130 137 139 148 152 146 152 150 147 153 151 152 150 151 155 155
164 165 162 165 167 164 161 160 163 165 165 163 165 167 167 168 168 166 167 168 166 163 159 154 149 139 130 128 129 118 98 76 58 50 40 36 56 66 60 55 51 44 43 54 48 34 44 48 46 52 72 83 94 109 124 131 140 141 146 152 163 169 158 153 143 139 141 145 137 137 144 138 146 154 145 154 160 151 155 151 150 151 153 155 154
162 165 164 164 168 166 164 164 164 168 170 171 172 174 174 171 169 167 166 166 164 163 161 158 152 142 139 140 136 123 99 75 55 48 45 40 54 65 58 54 60 55 49 63 58 42 48 54 53 50 54 62 71 89 108 134 157 152 163 160 163 171 159 158 146 145 158 156 146 139 143 145 147 150 148 169 168 158 165 156 151 150 152 153 152
161 168 167 164 170 168 167 167 167 172 175 178 180 181 180 174 169 168 167 165 165 166 166 161 155 148 148 145 135 124 103 75 57 49 47 46 55 60 60 61 66 72 70 72 72 67 64 60 56 43 40 42 41 69 95 131 174 178 185 179 175 174 162 165 157 158 167 162 160 148 150 167 160 150 166 181 157 160 170 160 154 151 150 151 151
163 169 167 166 172 170 171 171 170 176 179 183 186 186 185 178 171 170 170 168 170 173 169 163 160 157 155 151 138 128 107 77 60 52 46 45 51 54 59 63 70 85 85 78 76 70 63 57 55 43 27 22 23 63 102 134 170 196 201 196 190 186 173 171 170 175 177 172 169 155 162 180 169 161 179 168 152 161 169 161 155 151 149 151 152
167 170 167 167 172 172 175 175 176 181 185 188 189 191 189 182 174 173 174 174 177 177 172 166 169 167 163 162 147 138 120 88 66 52 46 43 44 50 55 51 66 86 84 81 84 78 68 49 47 47 24 13 63 137 166 141 172 197 214 211 203 204 197 188 183 182 185 187 179 162 172 182 171 177 179 156 150 155 162 160 156 152 151 152 153
172 174 170 170 172 173 178 180 183 186 191 194 192 194 192 187 179 178 181 181 182 179 175 173 178 176 172 173 158 151 141 111 71 50 39 36 36 41 43 25 36 65 76 81 89 87 73 41 30 34 37 36 33 175 192 181 206 200 214 222 216 214 211 211 200 190 195 194 187 173 179 185 177 189 174 147 146 148 150 154 155 153 152 153 153
175 178 175 174 175 177 180 183 189 191 195 200 198 198 195 193 187 184 186 185 185 184 181 182 184 182 181 181 173 169 161 149 57 39 16 17 20 22 28 14 16 35 49 67 79 80 66 47 34 24 32 35 5 167 167 175 218 219 216 226 225 223 224 222 214 216 208 193 193 181 186 197 188 190 170 143 142 142 140 143 147 147 149 152 152
175 179 179 179 180 181 183 186 192 195 198 202 202 202 197 196 194 189 188 188 190 190 190 189 189 189 187 187 185 184 182 196 359 11 352 357 357 359 12 357 357 19 41 55 54 71 70 57 44 24 33 39 246 206 209 197 206 221 218 225 228 230 235 228 221 225 212 194 201 193 196 202 194 190 171 149 145 141 138 141 144 145 150 154 153
175 181 184 184 186 186 187 191 194 198 199 199 202 205 198 197 198 192 190 192 194 195 196 194 193 196 192 191 192 195 201 209 299 347 335 342 344 348 355 345 350 12 44 59 40 43 70 61 58 61 35 10 329 305 255 239 219 221 224 227 230 228 229 227 223 219 210 205 205 203 207 201 194 190 175 163 158 148 144 147 151 153 155 156 156
179 184 190 188 190 191 190 194 196 198 201 199 201 206 200 198 199 195 194 198 200 199 201 200 199 202 199 197 198 203 214 221 253 304 327 334 338 342 347 349 356 7 33 60 51 54 78 77 80 78 17 356 347 330 305 302 280 248 237 233 233 230 224 225 226 218 214 213 204 206 210 201 195 189 179 177 176 172 163 159 161 160 160 159 160
185 188 196 192 191 194 194 196 199 199 201 203 201 203 203 201 203 202 200 203 203 202 205 206 206 207 205 203 204 212 230 246 265 291 317 323 329 337 343 352 358 6 30 57 64 67 76 75 75 70 37 17 352 325 326 311 297 286 257 240 234 230 228 226 223 220 219 217 211 212 210 202 200 191 184 186 186 187 185 181 178 174 169 166 167
188 190 196 193 190 194 195 196 203 204 204 207 204 201 204 204 207 209 208 207 205 205 208 211 214 215 211 210 211 219 236 257 270 289 308 319 327 335 341 346 352 357 19 50 60 73 79 75 77 66 49 35 339 307 308 301 303 310 289 247 233 225 226 226 222 221 220 219 219 219 213 206 203 197 192 191 191 191 194 196 194 193 186 176 176
191 191 194 193 191 194 196 197 204 207 206 209 207 204 207 209 208 210 214 215 210 208 213 217 221 223 220 216 219 229 241 263 278 291 310 323 328 332 337 342 349 347 360 26 34 64 77 70 78 72 54 34 346 314 294 297 307 311 304 256 228 220 217 220 222 221 219 219 221 220 217 211 206 203 200 196 197 196 198 201 201 203 201 192 186
195 194 195 195 193 195 198 201 207 210 209 210 208 207 211 210 209 210 215 221 218 214 217 222 227 230 229 222 222 236 246 259 274 285 300 315 323 330 329 335 351 345 357 19 8 28 50 55 73 69 35 18 359 349 325 312 324 326 284 233 214 216 214 217 222 221 218 219 221 220 218 215 211 207 204 202 202 201 203 205 205 207 208 204 198
198 199 199 198 197 197 199 202 208 211 211 212 210 210 212 209 212 214 215 220 222 220 221 227 234 238 238 232 229 238 247 257 270 276 287 309 320 325 317 322 347 344 349 14 1 14 36 38 45 31 17 16 14 25 36 357 354 1 349 231 208 204 216 221 225 224 220 218 220 221 218 217 215 211 207 206 205 204 207 208 208 210 211 210 206
204 205 203 203 201 201 203 202 207 211 213 216 213 212 216 213 215 219 217 221 227 229 229 231 238 244 243 239 235 238 247 257 266 273 285 305 307 309 311 316 338 344 339 355 353 8 23 11 17 16 13 16 21 29 21 8 352 337 352 306 237 209 215 221 226 228 223 218 220 222 220 218 216 213 210 208 208 207 209 210 210 213 214 214 212
211 212 209 210 207 206 210 206 209 215 216 220 218 215 218 218 221 226 225 226 232 236 238 238 242 246 246 242 238 237 245 255 260 272 285 292 292 297 306 310 321 337 334 345 348 355 3 359 9 13 11 15 19 22 15 8 350 326 336 319 262 225 223 224 224 226 223 217 217 222 221 218 216 214 213 210 209 210 212 213 213 214 215 216 216
219 218 215 218 215 213 217 214 215 219 219 223 225 222 222 223 225 231 235 236 238 238 240 243 244 246 247 247 245 243 245 252 259 266 276 281 285 290 295 300 304 324 329 329 338 341 355 356 2 10 11 16 17 16 13 5 349 333 332 314 274 227 227 234 226 218 218 215 213 220 221 218 218 216 216 213 210 212 214 214 215 216 215 216 219
222 222 219 219 219 217 220 221 221 225 226 226 228 228 228 230 229 232 236 239 240 240 241 243 245 247 246 248 249 248 245 249 259 263 271 279 284 287 290 292 294 310 316 313 329 329 352 359 353 3 7 7 8 8 10 8 353 337 336 329 305 261 246 247 232 209 208 214 213 219 222 220 220 219 219 216 212 213 215 215 216 217 217 217 219
226 226 224 220 221 221 222 225 226 231 234 233 233 233 234 236 236 237 238 241 242 242 244 244 245 244 244 249 251 251 250 250 256 261 270 278 280 284 286 286 287 294 298 302 319 313 334 348 339 352 357 355 5 3 4 9 358 341 341 348 331 263 262 258 235 207 202 213 216 220 226 224 223 222 220 218 215 215 216 217 218 219 219 218 219
234 235 236 232 230 230 230 231 231 234 237 239 240 239 238 240 241 241 240 241 242 242 243 244 246 245 246 252 253 255 257 256 258 262 267 272 275 278 280 282 282 283 287 291 298 301 316 326 324 340 350 353 5 1 359 6 6 355 341 357 345 257 259 243 223 214 205 213 216 218 225 225 224 224 222 219 217 218 218 218 219 220 221 220 219
239 241 242 239 238 239 238 238 238 238 238 240 242 242 240 238 238 239 240 240 240 243 243 244 246 247 249 253 255 257 261 262 262 266 269 269 271 273 273 276 278 276 276 279 288 299 304 304 307 322 340 349 359 358 355 0 5 347 325 11 24 265 257 225 212 210 203 209 212 214 219 220 222 223 224 222 219 219 220 219 220 221 223 222 220
241 242 241 240 242 245 247 247 246 246 246 245 245 246 246 245 241 238 241 243 243 245 246 246 247 250 252 255 256 257 260 262 263 266 270 269 269 271 271 272 275 272 272 277 284 293 289 284 284 296 321 332 352 355 345 355 7 349 319 6 33 300 286 227 219 214 197 200 207 210 213 216 220 222 223 224 223 221 221 221 221 221 223 224 222
239 241 243 244 245 246 249 250 250 249 250 252 251 250 251 254 254 248 244 245 247 246 248 249 249 253 255 257 259 259 259 262 263 264 266 269 269 270 270 268 269 268 271 276 273 275 278 279 277 281 306 315 345 2 353 354 357 358 344 351 18 331 326 255 230 246 217 206 210 208 208 213 218 221 221 224 226 225 223 223 224 223 223 224 223
235 237 242 244 245 245 247 251 253 251 251 255 257 255 254 257 260 258 252 247 245 244 246 251 252 253 254 256 261 262 261 262 265 266 265 266 267 267 266 264 266 267 268 271 271 271 270 270 274 275 279 287 316 352 353 341 344 357 350 320 290 340 323 289 266 281 263 221 219 213 212 216 216 220 222 224 227 229 227 225 226 226 225 224 223
240 239 237 235 239 241 242 247 251 252 252 254 257 258 259 260 262 261 259 256 254 250 246 246 248 250 252 254 256 259 263 264 266 267 265 262 261 262 263 262 264 265 264 266 267 266 262 259 269 273 268 275 297 316 324 324 328 340 334 322 308 279 258 280 281 284 289 260 234 218 216 220 218 219 221 223 226 231 231 228 227 229 228 227 225
244 246 236 228 231 236 240 246 248 249 251 253 254 255 259 262 262 260 259 259 260 259 251 245 243 243 246 250 254 256 262 266 265 264 263 259 255 254 256 257 256 259 261 262 263 261 257 252 258 270 272 276 289 294 301 306 305 307 321 334 316 281 243 284 295 288 288 284 267 237 221 221 218 216 215 218 222 227 233 233 230 229 230 229 228
225 240 236 229 229 234 241 245 246 247 249 251 253 252 254 258 260 258 256 254 256 258 254 250 249 247 244 243 250 256 259 262 261 261 261 257 253 253 254 255 255 258 260 261 260 257 253 249 247 253 263 267 269 275 282 287 285 280 299 322 313 330 348 298 306 293 284 283 276 259 236 227 219 217 214 215 218 223 230 235 232 230 230 230 229
213 226 237 241 239 241 244 244 245 247 248 250 251 251 252 255 257 256 254 252 253 254 254 253 253 254 253 249 249 250 255 259 258 257 259 256 251 249 250 252 254 257 259 258 256 254 251 249 248 244 246 257 258 257 263 272 275 271 286 296 286 314 333 323 320 286 274 271 260 252 240 229 222 222 220 216 218 222 226 231 233 233 233 233 231
320 228 237 252 253 251 253 257 258 255 254 252 250 249 248 250 253 254 254 252 253 254 254 255 256 256 257 257 254 248 249 257 259 256 256 255 252 250 250 252 253 254 255 254 250 246 243 241 248 250 244 249 255 249 249 258 267 266 269 280 264 259 282 350 33 326 283 261 243 243 232 222 220 221 224 223 221 225 227 228 232 233 234 236 236
353 325 245 251 253 249 246 254 262 260 257 251 249 250 247 247 249 251 255 255 256 259 258 257 259 259 257 258 257 251 245 253 260 260 257 254 252 251 252 253 254 255 254 253 249 243 240 239 245 253 249 247 250 248 245 250 261 263 265 278 257 219 229 230 17 8 359 329 337 254 235 228 222 216 222 228 226 228 229 227 229 230 231 233 237
356 343 341 331 280 263 244 244 255 257 258 254 250 253 251 249 251 253 258 260 261 264 262 259 259 261 260 258 260 259 252 252 256 258 258 253 249 248 249 252 254 254 255 254 251 245 242 240 240 246 247 245 247 247 245 245 253 265 272 270 257 245 226 200 227 270 100 20 13 359 267 254 235 225 227 231 230 232 231 228 228 228 228 230 233
19 356 346 345 312 293 273 249 250 252 258 262 258 257 256 252 250 250 254 256 257 260 260 260 260 260 259 259 261 261 258 257 256 255 254 251 248 247 246 248 250 252 254 254 251 245 240 239 238 241 242 241 243 245 245 245 249 260 268 271 278 281 241 193 234 149 143 268 2 7 333 284 262 250 241 236 232 234 234 229 230 230 231 232 232
44 25 360 338 310 304 298 280 265 256 256 261 260 258 256 251 249 251 253 256 258 258 258 260 261 261 262 263 261 259 260 261 257 253 250 246 248 249 247 246 248 250 251 252 250 244 239 237 235 236 237 236 239 242 243 242 244 251 256 269 281 284 297 328 336 58 141 217 282 323 338 320 293 280 259 249 237 235 237 234 233 234 233 233 234
36 27 26 4 314 306 300 295 286 270 264 262 260 257 257 259 262 267 269 271 271 265 261 261 262 263 262 261 258 258 261 259 252 252 251 245 244 250 253 251 247 248 249 248 247 243 238 236 234 235 235 233 234 237 240 241 243 247 249 258 265 270 292 313 317 320 182 247 237 258 311 328 310 295 274 260 245 235 238 240 238 238 237 234 236
32 22 20 12 353 335 310 300 288 280 282 281 273 266 264 268 271 273 275 279 279 274 272 272 269 266 262 257 256 258 258 253 249 251 251 245 241 246 254 256 249 244 245 244 243 241 239 236 234 234 232 230 230 232 235 237 240 244 247 251 256 261 271 284 295 299 284 281 249 236 264 307 314 305 290 268 257 249 246 248 246 248 247 240 239
42 38 29 19 8 355 339 319 302 295 295 293 284 274 269 268 270 272 274 278 278 277 281 283 277 273 271 267 264 260 255 252 252 251 250 248 245 244 248 254 253 245 241 242 242 240 239 237 234 231 228 226 225 227 231 233 236 241 244 247 250 257 262 265 274 281 278 281 272 235 236 270 300 289 273 263 261 265 264 258 256 259 259 253 249
48 46 41 32 25 17 6 353 340 331 320 307 293 281 272 267 265 265 269 274 275 277 281 282 279 275 275 275 271 264 257 254 253 250 251 252 249 243 243 249 254 250 242 240 239 239 238 235 232 230 228 227 226 226 230 232 234 237 240 243 247 251 258 261 261 263 268 274 274 253 237 260 285 265 246 253 257 264 269 264 263 262 259 261 259
47 43 40 32 28 26 20 14 9 4 352 337 320 300 286 278 274 269 269 271 273 278 278 276 277 275 273 274 273 270 265 260 255 249 248 250 248 244 244 249 253 251 245 237 232 235 237 233 232 232 232 231 228 228 230 232 234 235 237 240 242 243 248 254 253 252 259 264 269 269 258 265 280 257 237 246 249 257 265 260 263 264 254 254 256
52 46 43 35 31 30 22 15 14 16 12 4 357 335 312 301 295 286 282 279 276 278 278 275 277 278 276 273 271 272 270 265 260 254 248 246 247 246 244 246 247 245 242 237 231 231 233 233 233 235 236 235 231 228 229 231 232 234 237 238 240 242 243 246 247 248 252 258 265 269 264 262 269 260 245 238 238 252 262 254 256 258 246 242 245
Height
1548 1548 1550 1550 1551 1552 1553 1554 1555 1556 1557 1558 1559 1560 1560 1561 1561 1562 1562 1563 1564 1565 1566 1566 1567 1568 1569 1569 1570 1571 1571 1572 1572 1572 1572 1573 1573 1573 1574 1574 1574 1575 1574 1574 1573 1573 1572 1572 1572 1572 1572 1572 1572 1572 1571 1571 1570 1570 1571 1571 1573 1575 1574 1574 1575 1575 1575 1574 1575 1574 1575 1576 1577 1579 1581 1581 1582 1584 1585 1586 1587 1587 1587 1588 1589
1547 1549 1550 1551 1552 1552 1553 1554 1556 1556 1558 1559 1560 1561 1561 1562 1562 1563 1563 1564 1565 1566 1566 1567 1568 1568 1570 1570 1571 1572 1573 1573 1573 1573 1573 1573 1573 1574 1574 1575 1575 1575 1575 1574 1574 1574 1574 1573 1573 1572 1572 1572 1572 1572 1571 1571 1571 1571 1572 1572 1573 1576 1576 1575 1576 1577 1577 1576 1576 1576 1576 1577 1578 1580 1582 1583 1583 1584 1585 1587 1587 1588 1588 1588 1589
1547 1549 1550 1551 1552 1552 1554 1555 1556 1557 1558 1559 1560 1561 1562 1563 1563 1564 1564 1565 1566 1566 1567 1568 1568 1569 1570 1571 1572 1573 1573 1573 1573 1573 1573 1574 1574 1575 1575 1576 1576 1576 1575 1575 1574 1574 1575 1574 1574 1574 1573 1573 1573 1573 1573 1573 1572 1572 1573 1573 1574 1577 1578 1577 1578 1578 1579 1579 1578 1578 1578 1578 1579 1580 1582 1584 1584 1583 1584 1586 1587 1588 1588 1589 1590
1547 1549 1550 1551 1553 1553 1554 1555 1557 1558 1559 1560 1561 1562 1563 1564 1564 1565 1565 1566 1567 1567 1568 1568 1569 1570 1571 1572 1573 1574 1574 1574 1574 1574 1574 1574 1575 1575 1576 1576 1576 1576 1576 1575 1574 1574 1575 1575 1575 1576 1575 1574 1574 1574 1574 1574 1573 1572 1573 1574 1575 1576 1578 1580 1581 1581 1580 1580 1580 1580 1580 1580 1580 1581 1582 1584 1585 1584 1584 1585 1587 1588 1589 1590 1591
1548 1549 1550 1551 1553 1554 1555 1556 1557 1558 1559 1560 1561 1563 1564 1565 1565 1566 1566 1567 1568 1568 1569 1569 1570 1571 1572 1573 1573 1574 1574 1575 1575 1575 1575 1575 1575 1576 1576 1576 1577 1576 1576 1576 1575 1575 1576 1576 1577 1578 1576 1575 1575 1574 1574 1574 1573 1572 1573 1575 1576 1576 1578 1581 1583 1583 1582 1581 1581 1582 1581 1581 1581 1581 1582 1584 1586 1587 1586 1586 1588 1589 1591 1591 1592
1548 1549 1551 1552 1553 1554 1555 1557 1558 1559 1560 1561 1562 1563 1564 1565 1566 1567 1567 1568 1569 1569 1570 1570 1571 1572 1573 1573 1574 1574 1575 1575 1575 1575 1576 1576 1576 1577 1577 1577 1577 1577 1577 1576 1576 1576 1577 1578 1579 1579 1577 1576 1575 1574 1574 1573 1573 1573 1573 1575 1576 1577 1578 1579 1582 1584 1585 1583 1583 1583 1583 1583 1582 1582 1583 1584 1586 1588 1588 1589 1590 1591 1592 1593 1594
1548 1549 1551 1552 1554 1555 1556 1557 1559 1560 1561 1562 1563 1564 1565 1566 1566 1567 1569 1569 1570 1570 1571 1571 1572 1573 1573 1574 1574 1574 1575 1575 1576 1576 1576 1577 1577 1577 1578 1577 1578 1577 1577 1577 1577 1577 1578 1578 1579 1579 1578 1577 1576 1575 1575 1574 1574 1574 1574 1574 1576 1577 1577 1579 1581 1583 1585 1587 1587 1585 1584 1584 1584 1584 1584 1585 1586 1587 1589 1590 1591 1592 1593 1594 1595
1549 1550 1551 1552 1554 1555 1556 1558 1559 1560 1562 1563 1564 1565 1566 1567 1567 1568 1569 1570 1571 1571 1572 1572 1573 1574 1574 1575 1575 1575 1575 1576 1577 1577 1577 1578 1578 1578 1578 1578 1578 1578 1578 1578 1578 1578 1578 1579 1579 1580 1579 1578 1577 1576 1576 1576 1576 1575 1574 1575 1575 1576 1577 1579 1580 1581 1583 1587 1588 1587 1585 1585 1586 1586 1586 1586 1587 1588 1589 1591 1592 1593 1594 1595 1596
1549 1550 1551 1553 1554 1555 1557 1558 1560 1561 1562 1564 1565 1566 1567 1567 1568 1569 1570 1571 1572 1572 1573 1573 1574 1575 1575 1575 1575 1576 1576 1577 1577 1577 1578 1578 1578 1579 1579 1579 1579 1579 1579 1579 1579 1579 1579 1579 1580 1581 1580 1579 1578 1578 1577 1577 1577 1576 1575 1576 1576 1577 1577 1578 1579 1581 1582 1584 1586 1587 1587 1586 1586 1588 1588 1588 1590 1590 1591 1592 1592 1593 1594 1595 1596
1549 1550 1552 1553 1554 1555 1557 1558 1560 1562 1563 1564 1566 1566 1567 1568 1569 1570 1571 1572 1572 1573 1574 1574 1575 1575 1576 1576 1576 1577 1577 1578 1578 1578 1578 1578 1579 1579 1580 1580 1580 1580 1580 1580 1580 1580 1579 1580 1581 1581 1581 1580 1579 1578 1578 1578 1578 1577 1577 1577 1577 1578 1578 1578 1579 1580 1581 1583 1585 1587 1589 1589 1588 1588 1588 1590 1591 1591 1591 1592 1593 1593 1594 1595 1596
1550 1551 1553 1554 1555 1556 1557 1559 1560 1562 1563 1565 1566 1567 1568 1569 1570 1570 1572 1572 1573 1574 1574 1575 1575 1576 1576 1577 1577 1578 1578 1578 1578 1578 1578 1579 1579 1580 1580 1581 1581 1581 1581 1581 1581 1581 1580 1580 1581 1581 1581 1580 1579 1579 1578 1578 1578 1578 1578 1578 1578 1579 1579 1579 1579 1580 1581 1583 1585 1587 1589 1592 1593 1591 1590 1590 1590 1590 1591 1591 1592 1593 1594 1595 1596
1550 1551 1553 1554 1555 1556 1558 1559 1560 1562 1563 1565 1566 1567 1568 1569 1570 1571 1572 1573 1574 1574 1575 1575 1576 1577 1577 1577 1578 1578 1578 1578 1578 1578 1579 1579 1580 1580 1581 1581 1582 1582 1582 1582 1582 1581 1581 1581 1581 1580 1580 1580 1579 1579 1579 1578 1578 1578 1579 1579 1580 1580 1580 1581 1580 1580 1581 1583 1586 1588 1590 1593 1595 1594 1592 1591 1591 1591 1591 1591 1592 1593 1594 1595 1596
1551 1552 1554 1555 1556 1557 1558 1560 1561 1562 1563 1565 1566 1567 1568 1569 1571 1572 1573 1574 1574 1575 1575 1576 1577 1577 1577 1578 1578 1578 1578 1578 1579 1579 1579 1579 1580 1581 1581 1582 1582 1583 1582 1582 1582 1581 1581 1581 1580 1580 1580 1580 1580 1580 1580 1579 1578 1579 1579 1580 1581 1581 1582 1582 1582 1582 1582 1584 1586 1588 1590 1591 1592 1593 1593 1593 1592 1592 1592 1592 1593 1594 1595 1596 1597
1552 1554 1554 1555 1557 1558 1559 1560 1561 1563 1564 1565 1566 1567 1568 1569 1571 1572 1573 1574 1575 1575 1576 1576 1577 1578 1578 1578 1578 1578 1579 1579 1579 1579 1580 1580 1580 1581 1581 1582 1582 1583 1582 1582 1582 1581 1581 1581 1580 1580 1580 1580 1580 1580 1580 1580 1579 1579 1579 1580 1581 1582 1583 1584 1584 1584 1585 1586 1587 1588 1590 1590 1590 1592 1593 1593 1593 1593 1593 1593 1594 1594 1595 1596 1597
1553 1554 1555 1556 1558 1559 1560 1561 1562 1563 1564 1565 1567 1568 1568 1569 1570 1572 1573 1574 1575 1575 1576 1577 1577 1578 1578 1578 1578 1579 1579 1579 1579 1580 1580 1580 1581 1581 1582 1582 1582 1582 1582 1582 1583 1582 1581 1581 1581 1580 1581 1581 1581 1580 1580 1580 1580 1579 1579 1579 1580 1581 1582 1584 1585 1586 1586 1587 1588 1589 1590 1590 1591 1592 1593 1593 1593 1593 1594 1594 1594 1595 1596 1597 1598
1553 1554 1555 1557 1558 1560 1561 1562 1563 1564 1565 1566 1567 1568 1568 1569 1571 1572 1573 1574 1575 1575 1576 1577 1577 1578 1578 1579 1579 1579 1579 1580 1580 1580 1580 1580 1581 1581 1582 1582 1582 1583 1583 1583 1583 1583 1582 1582 1582 1581 1581 1581 1580 1580 1580 1580 1580 1580 1579 1579 1579 1580 1581 1583 1585 1586 1587 1588 1588 1589 1590 1590 1591 1592 1593 1593 1593 1593 1594 1594 1595 1595 1596 1597 1598
1553 1555 1556 1557 1559 1561 1562 1563 1564 1565 1566 1566 1568 1568 1569 1570 1571 1572 1573 1574 1575 1575 1576 1577 1577 1578 1578 1579 1579 1579 1580 1580 1580 1581 1581 1581 1581 1582 1582 1581 1581 1583 1584 1584 1583 1582 1582 1582 1582 1582 1581 1581 1580 1580 1580 1580 1580 1580 1580 1579 1579 1579 1581 1582 1583 1585 1586 1587 1587 1588 1589 1590 1590 1591 1592 1592 1593 1593 1594 1594 1595 1596 1596 1597 1598
1554 1555 1557 1558 1559 1561 1562 1564 1564 1566 1567 1567 1568 1569 1569 1570 1571 1573 1574 1574 1575 1575 1576 1577 1578 1578 1579 1579 1579 1580 1580 1581 1581 1581 1581 1581 1582 1582 1582 1582 1581 1583 1584 1584 1583 1582 1582 1582 1581 1581 1581 1580 1580 1579 1580 1580 1580 1580 1580 1579 1579 1579 1580 1580 1582 1583 1584 1585 1587 1588 1588 1589 1589 1590 1591 1592 1593 1593 1594 1595 1595 1596 1597 1597 1598
1554 1555 1557 1559 1560 1561 1563 1564 1565 1566 1567 1568 1569 1569 1570 1571 1572 1573 1574 1575 1575 1576 1576 1577 1578 1578 1579 1579 1580 1580 1581 1581 1581 1582 1582 1582 1582 1582 1582 1582 1581 1582 1583 1583 1582 1581 1581 1581 1581 1580 1579 1579 1579 1579 1579 1579 1579 1579 1579 1579 1579 1579 1579 1580 1581 1582 1583 1585 1586 1587 1587 1587 1589 1590 1591 1592 1593 1593 1594 1595 1596 1596 1597 1598 1598
1554 1555 1557 1559 1560 1561 1563 1564 1565 1567 1568 1569 1570 1570 1570 1571 1572 1573 1574 1575 1576 1576 1577 1577 1578 1578 1579 1579 1580 1580 1581 1582 1582 1582 1582 1582 1582 1582 1582 1581 1580 1580 1582 1582 1581 1580 1580 1580 1579 1579 1578 1578 1578 1578 1578 1578 1578 1578 1578 1578 1578 1579 1579 1579 1580 1581 1582 1584 1586 1586 1586 1587 1588 1589 1590 1591 1593 1594 1594 1595 1596 1596 1597 1598 1598
1555 1556 1557 1558 1560 1562 1563 1564 1565 1567 1568 1569 1570 1571 1571 1571 1572 1574 1575 1575 1576 1577 1577 1577 1578 1579 1579 1580 1580 1581 1582 1582 1582 1583 1583 1583 1582 1582 1581 1580 1579 1579 1580 1581 1580 1579 1579 1579 1579 1578 1577 1577 1578 1577 1577 1577 1578 1577 1577 1577 1578 1578 1578 1579 1580 1581 1582 1583 1584 1585 1585 1586 1588 1589 1590 1591 1592 1594 1594 1595 1596 1596 1597 1597 1598
1556 1556 1556 1558 1560 1562 1563 1564 1565 1567 1568 1570 1570 1571 1572 1572 1573 1574 1575 1576 1576 1577 1577 1578 1578 1579 1579 1580 1581 1582 1582 1583 1583 1583 1583 1583 1582 1581 1580 1580 1579 1579 1578 1579 1580 1579 1579 1579 1578 1578 1577 1577 1577 1577 1577 1576 1576 1577 1577 1577 1577 1577 1578 1578 1579 1580 1581 1582 1583 1584 1584 1586 1587 1588 1589 1590 1592 1593 1594 1595 1596 1596 1597 1597 1598
1556 1556 1557 1558 1560 1562 1563 1565 1566 1567 1568 1570 1570 1571 1572 1573 1574 1575 1575 1576 1576 1577 1577 1578 1578 1579 1579 1580 1581 1582 1583 1583 1583 1583 1583 1582 1582 1581 1580 1579 1579 1579 1578 1578 1580 1580 1580 1579 1579 1578 1577 1577 1577 1576 1576 1576 1576 1576 1575 1576 1577 1577 1577 1577 1578 1579 1580 1581 1581 1582 1584 1585 1586 1587 1588 1589 1591 1592 1593 1594 1595 1596 1597 1597 1598
1556 1557 1558 1559 1560 1562 1564 1565 1566 1567 1569 1570 1571 1571 1572 1573 1574 1576 1576 1577 1577 1577 1577 1578 1579 1579 1579 1581 1582 1582 1583 1583 1583 1583 1583 1583 1582 1581 1580 1579 1578 1578 1577 1577 1579 1581 1580 1579 1579 1579 1579 1578 1577 1576 1576 1575 1575 1575 1575 1575 1576 1576 1576 1577 1578 1579 1579 1580 1580 1581 1583 1584 1585 1586 1587 1588 1590 1591 1592 1593 1594 1595 1596 1597 1598
1557 1558 1559 1560 1561 1562 1564 1566 1566 1567 1569 1570 1571 1572 1572 1573 1575 1576 1577 1577 1577 1578 1578 1578 1579 1579 1579 1581 1582 1582 1583 1583 1583 1583 1583 1583 1582 1582 1580 1579 1579 1578 1577 1578 1578 1578 1578 1577 1579 1580 1579 1578 1576 1575 1575 1574 1574 1574 1574 1574 1575 1575 1576 1576 1577 1578 1579 1579 1579 1580 1581 1583 1584 1585 1586 1587 1589 1590 1591 1592 1594 1595 1596 1596 1597
1558 1559 1560 1561 1562 1563 1564 1566 1567 1568 1569 1570 1571 1572 1572 1573 1575 1575 1576 1577 1577 1578 1578 1578 1579 1579 1579 1581 1582 1582 1583 1583 1583 1583 1583 1583 1582 1582 1581 1579 1579 1579 1578 1579 1579 1578 1578 1577 1578 1578 1576 1576 1575 1574 1574 1574 1573 1573 1573 1573 1573 1573 1574 1575 1576 1577 1577 1578 1578 1579 1580 1582 1583 1584 1585 1586 1587 1589 1590 1591 1593 1594 1595 1596 1597
1558 1559 1561 1562 1562 1564 1565 1566 1567 1568 1569 1570 1571 1572 1572 1573 1574 1575 1575 1577 1577 1577 1578 1578 1578 1578 1579 1580 1581 1582 1583 1583 1583 1583 1582 1583 1583 1582 1581 1580 1579 1580 1579 1579 1579 1578 1578 1577 1576 1576 1575 1575 1575 1574 1574 1573 1573 1573 1572 1572 1572 1572 1573 1574 1575 1576 1576 1577 1577 1578 1580 1581 1582 1583 1584 1585 1586 1588 1589 1590 1592 1593 1594 1595 1596
1558 1560 1561 1562 1563 1564 1565 1566 1567 1568 1569 1570 1571 1572 1572 1573 1574 1574 1575 1575 1576 1576 1577 1577 1577 1578 1578 1579 1580 1581 1582 1583 1583 1583 1583 1583 1583 1582 1582 1580 1579 1580 1580 1579 1579 1578 1577 1576 1575 1575 1575 1575 1575 1574 1574 1573 1573 1572 1572 1572 1572 1572 1572 1573 1574 1574 1575 1576 1576 1577 1579 1580 1581 1582 1583 1584 1585 1587 1588 1589 1591 1592 1593 1594 1595
1558 1560 1562 1562 1563 1564 1565 1566 1567 1568 1569 1570 1571 1571 1571 1572 1572 1573 1573 1574 1575 1575 1576 1576 1577 1577 1577 1578 1579 1580 1581 1582 1583 1583 1583 1582 1582 1582 1582 1581 1579 1579 1580 1579 1579 1578 1577 1575 1575 1575 1575 1575 1575 1575 1574 1573 1573 1572 1571 1572 1572 1571 1571 1572 1573 1573 1574 1575 1576 1576 1577 1579 1580 1581 1582 1583 1584 1586 1587 1588 1590 1591 1592 1593 1594
1558 1559 1561 1562 1563 1564 1565 1566 1567 1568 1569 1570 1570 1570 1570 1571 1571 1572 1572 1573 1574 1574 1575 1575 1576 1577 1577 1577 1577 1578 1580 1581 1582 1582 1582 1582 1582 1581 1581 1581 1580 1579 1580 1579 1579 1578 1577 1576 1575 1575 1575 1575 1575 1575 1574 1573 1573 1572 1571 1571 1572 1571 1571 1571 1572 1572 1573 1574 1575 1575 1576 1577 1578 1580 1581 1582 1583 1584 1586 1587 1588 1589 1591 1592 1593
1556 1557 1559 1561 1562 1563 1565 1566 1567 1568 1568 1569 1569 1569 1569 1570 1570 1571 1571 1572 1573 1573 1574 1574 1575 1576 1576 1575 1576 1577 1578 1580 1581 1581 1581 1581 1581 1581 1581 1581 1580 1579 1580 1579 1579 1578 1577 1576 1575 1575 1575 1575 1575 1575 1574 1573 1572 1572 1571 1571 1571 1571 1571 1571 1571 1572 1572 1573 1573 1574 1575 1576 1577 1578 1580 1581 1582 1583 1585 1586 1587 1588 1589 1590 1592
1554 1556 1557 1559 1561 1562 1564 1565 1566 1567 1567 1568 1568 1568 1569 1569 1569 1570 1570 1571 1572 1572 1572 1573 1573 1573 1573 1573 1574 1575 1576 1577 1578 1579 1580 1580 1580 1581 1581 1581 1580 1579 1579 1579 1578 1577 1576 1576 1576 1575 1575 1574 1574 1574 1574 1573 1572 1572 1572 1571 1571 1572 1571 1570 1571 1571 1571 1572 1572 1573 1574 1575 1576 1577 1578 1580 1581 1582 1583 1584 1586 1587 1588 1589 1590
1553 1555 1556 1557 1559 1561 1562 1563 1564 1565 1565 1566 1567 1567 1567 1568 1568 1569 1569 1570 1570 1570 1571 1571 1571 1571 1571 1571 1572 1573 1574 1575 1576 1576 1578 1579 1579 1580 1580 1580 1579 1578 1578 1578 1577 1576 1577 1576 1575 1575 1575 1575 1575 1574 1574 1573 1572 1572 1572 1572 1572 1572 1571 1570 1570 1570 1571 1571 1572 1572 1573 1574 1575 1576 1577 1578 1579 1580 1581 1583 1584 1585 1586 1588 1589
1552 1553 1555 1556 1557 1559 1560 1560 1561 1562 1563 1564 1565 1565 1566 1567 1567 1568 1568 1568 1569 1569 1569 1570 1570 1570 1569 1569 1570 1571 1572 1573 1574 1575 1576 1577 1578 1578 1578 1579 1579 1578 1577 1577 1576 1576 1577 1576 1575 1574 1575 1575 1575 1574 1574 1573 1573 1573 1572 1572 1572 1571 1570 1570 1570 1570 1570 1571 1571 1572 1572 1573 1574 1575 1575 1576 1578 1579 1580 1581 1582 1584 1585 1586 1588
1551 1552 1553 1554 1555 1556 1557 1558 1559 1560 1560 1561 1562 1564 1565 1566 1566 1566 1567 1567 1567 1568 1568 1569 1569 1569 1569 1568 1568 1568 1570 1571 1572 1573 1574 1575 1576 1577 1577 1578 1578 1577 1577 1576 1576 1576 1576 1575 1574 1574 1574 1574 1575 1574 1574 1573 1574 1573 1573 1572 1572 1571 1570 1570 1570 1570 1570 1570 1570 1571 1571 1572 1573 1573 1574 1575 1576 1577 1578 1579 1581 1582 1583 1585 1586
1550 1551 1551 1552 1553 1554 1555 1556 1557 1558 1558 1559 1560 1562 1563 1564 1565 1565 1566 1566 1565 1566 1567 1568 1569 1569 1568 1568 1567 1566 1567 1568 1569 1571 1572 1573 1574 1575 1576 1577 1577 1576 1576 1576 1576 1575 1576 1575 1574 1573 1574 1574 1574 1574 1573 1573 1574 1573 1573 1573 1572 1571 1570 1570 1570 1569 1569 1569 1569 1570 1570 1571 1571 1572 1573 1574 1575 1576 1577 1578 1579 1580 1581 1583 1584
1549 1549 1549 1550 1552 1552 1553 1554 1556 1556 1557 1557 1558 1560 1561 1561 1562 1563 1564 1564 1563 1563 1564 1565 1566 1567 1567 1567 1566 1565 1565 1566 1567 1568 1569 1571 1572 1574 1574 1575 1576 1575 1576 1576 1576 1575 1575 1575 1574 1572 1573 1573 1574 1574 1573 1573 1573 1573 1573 1572 1571 1570 1570 1570 1569 1569 1569 1569 1569 1569 1569 1570 1570 1571 1572 1573 1574 1575 1575 1576 1578 1579 1580 1581 1582
1548 1548 1548 1549 1550 1551 1552 1553 1554 1554 1555 1555 1556 1558 1559 1559 1560 1560 1561 1561 1561 1561 1561 1561 1562 1563 1564 1565 1564 1563 1563 1564 1565 1566 1567 1569 1570 1571 1572 1573 1574 1574 1575 1575 1575 1575 1575 1575 1574 1572 1572 1572 1573 1573 1572 1572 1572 1572 1572 1571 1570 1570 1569 1569 1569 1568 1568 1568 1568 1568 1568 1569 1569 1570 1571 1572 1573 1574 1574 1575 1576 1577 1578 1579 1580
1548 1548 1548 1548 1549 1550 1551 1552 1552 1552 1553 1554 1555 1556 1556 1557 1557 1557 1557 1558 1558 1558 1558 1559 1559 1559 1560 1561 1561 1561 1562 1561 1562 1564 1565 1566 1568 1569 1570 1571 1571 1572 1573 1574 1574 1574 1574 1573 1573 1573 1572 1572 1573 1572 1572 1572 1572 1572 1571 1570 1569 1569 1568 1568 1568 1567 1567 1567 1567 1567 1567 1568 1568 1569 1570 1571 1571 1572 1573 1573 1574 1575 1576 1577 1578
1547 1548 1548 1548 1549 1549 1550 1550 1550 1550 1551 1552 1553 1554 1554 1554 1555 1555 1554 1555 1555 1555 1556 1556 1556 1556 1557 1558 1559 1559 1560 1559 1560 1561 1563 1564 1565 1567 1568 1569 1570 1571 1571 1572 1573 1573 1573 1572 1572 1572 1572 1572 1572 1572 1572 1572 1571 1571 1570 1569 1568 1568 1567 1567 1567 1567 1566 1566 1566 1567 1567 1567 1568 1568 1569 1569 1570 1571 1572 1572 1573 1574 1575 1575 1577
1547 1547 1547 1548 1548 1549 1549 1549 1549 1549 1550 1551 1552 1552 1551 1551 1552 1552 1552 1552 1552 1552 1553 1553 1553 1554 1555 1555 1556 1557 1558 1557 1558 1559 1560 1561 1563 1564 1565 1566 1568 1569 1570 1570 1571 1572 1571 1571 1571 1571 1571 1572 1572 1572 1572 1571 1571 1570 1570 1569 1568 1568 1567 1566 1566 1566 1566 1566 1565 1566 1566 1566 1567 1568 1568 1568 1569 1570 1570 1571 1572 1572 1573 1574 1575
1547 1546 1546 1547 1547 1548 1548 1548 1548 1548 1549 1551 1551 1550 1549 1549 1549 1549 1549 1550 1550 1550 1550 1551 1551 1551 1551 1552 1553 1554 1555 1556 1556 1556 1557 1558 1560 1561 1563 1564 1565 1567 1567 1567 1568 1569 1569 1569 1570 1570 1570 1571 1571 1571 1571 1570 1570 1569 1569 1569 1568 1568 1567 1567 1567 1566 1565 1564 1565 1565 1565 1566 1566 1567 1568 1568 1568 1569 1569 1570 1570 1571 1572 1572 1573
1546 1546 1545 1545 1546 1547 1547 1548 1548 1548 1549 1550 1549 1548 1547 1547 1547 1547 1547 1547 1548 1548 1548 1548 1549 1549 1549 1549 1550 1551 1552 1553 1554 1554 1554 1555 1557 1559 1561 1562 1563 1564 1565 1565 1565 1566 1566 1567 1568 1569 1569 1569 1569 1569 1569 1569 1569 1568 1568 1567 1567 1567 1567 1567 1567 1565 1564 1564 1564 1564 1564 1565 1565 1566 1566 1567 1567 1568 1568 1568 1569 1569 1570 1571 1572
1547 1546 1545 1545 1546 1546 1546 1547 1547 1547 1547 1547 1547 1546 1546 1546 1546 1546 1545 1545 1546 1546 1545 1546 1546 1547 1547 1547 1548 1549 1549 1550 1551 1552 1552 1553 1554 1556 1558 1560 1561 1562 1562 1563 1563 1563 1564 1565 1566 1567 1567 1568 1568 1568 1568 1567 1567 1567 1567 1566 1566 1566 1565 1565 1565 1564 1563 1563 1563 1563 1563 1563 1564 1564 1565 1566 1566 1567 1567 1567 1567 1568 1568 1569 1570
1547 1546 1546 1546 1545 1545 1546 1546 1546 1546 1546 1546 1545 1545 1545 1545 1545 1544 1544 1543 1543 1544 1543 1544 1544 1544 1545 1546 1546 1546 1547 1547 1548 1549 1550 1550 1551 1552 1554 1556 1557 1559 1560 1560 1560 1561 1562 1562 1563 1564 1564 1565 1566 1566 1567 1566 1566 1566 1566 1566 1565 1565 1564 1564 1563 1563 1563 1563 1563 1563 1563 1563 1563 1563 1564 1564 1565 1565 1566 1566 1566 1566 1567 1567 1568
1546 1546 1546 1545 1545 1545 1545 1545 1545 1545 1545 1545 1544 1544 1544 1544 1543 1543 1543 1542 1542 1542 1542 1543 1543 1543 1544 1544 1544 1544 1545 1545 1545 1547 1548 1548 1548 1549 1550 1552 1555 1556 1556 1557 1558 1559 1559 1560 1561 1561 1562 1563 1564 1564 1565 1565 1565 1565 1564 1565 1565 1564 1564 1564 1563 1563 1563 1563 1563 1563 1562 1562 1562 1562 1562 1563 1563 1564 1564 1564 1565 1565 1565 1566 1566
1546 1546 1545 1545 1545 1544 1544 1544 1544 1544 1544 1544 1544 1544 1543 1543 1543 1542 1542 1542 1542 1542 1542 1542 1542 1542 1542 1542 1542 1542 1543 1543 1544 1544 1545 1545 1546 1547 1547 1549 1551 1553 1553 1554 1555 1556 1557 1558 1559 1559 1560 1561 1561 1562 1563 1563 1564 1564 1564 1564 1564 1564 1564 1563 1563 1563 1563 1563 1563 1563 1562 1561 1561 1561 1561 1561 1562 1562 1563 1563 1563 1563 1563 1564 1564
1547 1546 1546 1545 1545 1544 1543 1543 1543 1543 1543 1543 1543 1543 1543 1542 1542 1542 1542 1542 1542 1541 1541 1541 1541 1541 1541 1540 1540 1541 1541 1541 1542 1542 1542 1542 1543 1544 1545 1546 1548 1549 1551 1551 1552 1553 1555 1556 1557 1557 1558 1558 1559 1560 1561 1562 1562 1562 1562 1563 1563 1563 1563 1563 1563 1563 1563 1562 1562 1562 1561 1561 1561 1561 1560 1560 1560 1561 1561 1561 1562 1562 1562 1562 1562
1548 1547 1547 1546 1545 1544 1544 1543 1542 1542 1542 1542 1542 1541 1541 1541 1541 1542 1541 1541 1541 1541 1540 1540 1539 1539 1539 1539 1539 1539 1539 1539 1539 1539 1540 1540 1540 1541 1543 1544 1545 1546 1548 1549 1550 1551 1552 1553 1554 1555 1555 1556 1557 1558 1559 1560 1560 1561 1561 1561 1561 1562 1562 1562 1562 1562 1562 1562 1561 1561 1560 1560 1560 1560 1560 1560 1559 1560 1560 1560 1560 1560 1560 1560 1560
1549 1548 1548 1547 1546 1546 1545 1544 1543 1542 1542 1541 1541 1541 1540 1540 1540 1540 1540 1540 1540 1539 1539 1539 1539 1539 1538 1538 1538 1538 1537 1537 1537 1537 1537 1538 1538 1539 1540 1541 1543 1544 1545 1546 1548 1549 1550 1551 1552 1552 1553 1554 1555 1556 1556 1557 1559 1559 1560 1560 1560 1560 1561 1561 1561 1561 1561 1561 1560 1560 1560 1560 1560 1560 1560 1559 1559 1558 1559 1559 1559 1559 1559 1559 1559
1550 1549 1549 1548 1547 1546 1546 1545 1544 1543 1542 1541 1541 1540 1540 1539 1539 1539 1538 1538 1538 1538 1538 1538 1538 1538 1538 1538 1537 1536 1536 1536 1535 1534 1535 1536 1537 1537 1538 1540 1541 1542 1543 1544 1545 1547 1548 1549 1549 1550 1551 1552 1553 1554 1555 1555 1557 1558 1558 1559 1559 1559 1560 1560 1560 1560 1560 1560 1560 1559 1559 1559 1559 1559 1559 1559 1558 1557 1557 1557 1557 1557 1558 1558 1558